Station 44007 (LLNR 75) - PORTLAND - 12 NM Southeast of Portland,ME Image indicating link to RSS feed of recent meteorological observations for station 44007

East Hue and Cry Rock Lighted Buoy 1


Conditions at 44007 as of
(10:30 am EDT)
1430 GMT on 07/15/2024:
     

Click on the graph icon in the table below to see a time series plot of the last five days of that observation.

5-day plot - Wind Direction Wind Direction (WDIR):SSW ( 200 deg true )
5-day plot - Wind Speed Wind Speed (WSPD): 5.8 kts
5-day plot - Wind Gust Wind Gust (GST): 7.8 kts
5-day plot - Atmospheric Pressure Atmospheric Pressure (PRES):29.83 in
5-day plot - Air Temperature Air Temperature (ATMP): 65.7 °F
5-day plot - Water Temperature Water Temperature (WTMP): 63.0 °F
5-day plot - Dew Point Dew Point (DEWP): 63.9 °F
5-day plot - Wind Speed at 10 Meters Wind Speed at 10 meters (WSPD10M): 7.8 kts
5-day plot - Wind Speed at 20 Meters Wind Speed at 20 meters (WSPD20M): 7.8 kts
5-day plot -  Wind Speed, Wind Gust and Atmospheric Pressure Combined plot of Wind Speed, Gust, and Air Pressure
Supplemental Measurements
Highest 1-minute Wind Speed
Time (EDT)5-day plot - 1-Minute Wind Speed WSPD 5-day plot - 1-Minute Wind Direction WDIR
10:26 am 7.8 kts-
Previous observations
TIME
(EDT)
5-day plot - Wind Direction
WDIR
 
5-day plot - Wind Speed
WSPD
kts
5-day plot - Wind Gust
GST
kts
5-day plot - Wave Height
WVHT
ft
5-day plot - Dominant Wave Period
DPD
sec
5-day plot - Average Wave Period
APD
sec
5-day plot - Mean Wave Direction
MWD
 
5-day plot - Atmospheric Pressure
PRES
in
5-day plot - Pressure Tendency
PTDY
in
5-day plot - Air Temperature
ATMP
°F
5-day plot - Water Temperature
WTMP
°F
5-day plot - Dew Point
DEWP
°F
5-day plot - Salinity
SAL
psu
5-day plot - Visibility
VIS
nmi
5-day plot - Tide (above MLLW)
TIDE
ft
2024-07-15 10:20 amSSW 5.8 7.8 2.0 85.1SSE29.84- 65.7 63.1 63.5---
2024-07-15 10:10 am SW 5.8 7.8 2.0-5.1SSE29.85- 65.8 63.3 63.5---
2024-07-15 10:00 amSSW 7.8 7.8----29.85-0.01 65.5 63.3 63.3---
2024-07-15 09:50 am S 5.8 7.8 2.0 85.1SSE29.83- 65.3 63.3 63.1---
2024-07-15 09:40 am S 5.8 7.8 2.0-5.1SSE29.83- 65.5 63.1 63.1---
2024-07-15 09:30 am S 7.8 7.8----29.83- 65.5 63.3 63.0---
2024-07-15 09:20 am S 7.8 7.8 2.0 95.3SSE29.84- 65.3 63.3 63.0---
2024-07-15 09:10 am-------29.85-------
2024-07-15 09:00 am-------29.85+0.00------
2024-07-15 08:50 am S 3.9 5.8 2.0-5.1 SE29.85-------
2024-07-15 08:40 am S 5.8 5.8----29.85- 65.1 63.1 62.8---
2024-07-15 08:30 amSSW 5.8 5.8----29.85- 64.9 63.1 62.6---
2024-07-15 08:20 amSSW 5.8 5.8 2.0 85.2SSE29.86- 64.8 63.3 62.6---
2024-07-15 08:10 am-------29.86-------
2024-07-15 08:00 amSSW 3.9 3.9----29.86+0.01------
2024-07-15 07:50 amSSW 3.9 5.8 2.0 95.5SSE29.86- 64.9 63.3 62.8---
2024-07-15 07:40 am S 3.9 5.8----29.86- 64.9 63.3 62.6---
2024-07-15 07:30 amSSW 5.8 5.8----29.86- 64.9 63.3 62.6---
2024-07-15 07:20 am SW 5.8 5.8 2.0 95.1SSE29.85- 64.8 63.3 62.4---
2024-07-15 07:10 am-------29.85-------
2024-07-15 07:00 am SW 5.8 5.8----29.85+0.00------
2024-07-15 06:50 amSSW 7.8 7.8 2.0 85.2 SE29.85- 64.9 63.3 63.0---
2024-07-15 06:40 amSSW 5.8 5.8 2.0-5.2 SE29.85- 64.8 63.3 62.8---
2024-07-15 06:30 am SW 5.8 7.8----29.85- 65.3 63.3 63.0---
2024-07-15 06:20 am--- 2.3-5.1SSE29.85-------
2024-07-15 06:10 am-------29.85-------
2024-07-15 06:00 am SW 5.8 7.8----29.85+0.00------
2024-07-15 05:50 am SW 5.8 7.8 2.3 95.1 SE29.85- 65.5 63.1 63.0---
2024-07-15 05:40 am SW 7.8 9.7----29.85- 65.8 63.1 63.3---
2024-07-15 05:30 amSSW 7.8 9.7----29.85- 65.3 63.1 63.0---
2024-07-15 05:20 am SW 9.7 11.7 2.3 85.0SSE29.85- 65.5 63.0 63.0---
2024-07-15 05:10 am-------29.85-------
2024-07-15 05:00 am-------29.85-0.01------
2024-07-15 04:50 amSSW 7.8 9.7 2.3-5.1SSE29.85-------
2024-07-15 04:40 amSSW 7.8 9.7----29.85- 64.2 63.3 62.4---
2024-07-15 04:30 am SW 7.8 9.7----29.85- 64.2 63.3 62.6---
2024-07-15 04:20 am SW 7.8 9.7 2.3 85.1 SE29.85- 64.2 63.1 62.6---
2024-07-15 04:10 am--- 2.3-5.1 SE29.85-------
2024-07-15 04:00 am SW 5.8 7.8----29.85-0.04------
2024-07-15 03:50 am SW 5.8 7.8 2.0 74.7SSE29.85- 64.0 63.0 62.4---
2024-07-15 03:40 amSSW 7.8 9.7 2.0-4.7SSE29.84- 64.0 63.3 62.4---
2024-07-15 03:30 amSSW 7.8 9.7----29.84- 63.9 63.1 62.2---
2024-07-15 03:20 amSSW 9.7 9.7 2.0 74.7SSE29.85- 63.9 63.1 62.1---
2024-07-15 03:10 am-------29.85-------
2024-07-15 03:00 am SW 7.8 7.8----29.85-0.04------
2024-07-15 02:50 amSSW 7.8 9.7 2.3 84.6SSE29.85- 63.9 63.3 62.2---
2024-07-15 02:40 amSSW 7.8 9.7 2.3-4.6SSE29.85- 63.9 63.1 62.2---
2024-07-15 02:30 amSSW 7.8 9.7----29.85- 63.9 63.1 62.2---
2024-07-15 02:20 am--- 2.0-4.4SSE29.85-------
2024-07-15 02:10 am-------29.86-------
2024-07-15 02:00 am SW 7.8 9.7----29.86-0.03------
2024-07-15 01:50 am SW 7.8 9.7 2.0 84.2 SE29.86- 64.2 63.0 62.6---
2024-07-15 01:40 am SW 5.8 7.8----29.87-------
2024-07-15 01:30 am SW 5.8 7.8----29.87- 64.4 63.1 62.6---
2024-07-15 01:20 am SW 7.8 7.8 2.3 74.2SSE29.87- 64.8 63.1 62.8---
2024-07-15 01:10 am-------29.88-------
2024-07-15 01:00 am SW 7.8 9.7----29.88-0.02------
2024-07-15 12:50 amSSW 7.8 7.8 2.3 74.4SSE29.88- 65.3 63.3 63.1---
2024-07-15 12:40 amSSW 5.8 7.8 2.3-4.4SSE29.88- 65.5 63.3 63.1---
2024-07-15 12:30 amSSW 5.8 7.8----29.88- 65.8 63.3 63.1---
2024-07-15 12:20 am--- 2.0-4.5SSE29.89-------
2024-07-15 12:10 am-------29.89-------
2024-07-15 12:00 am SW 7.8 9.7----29.89-------
2024-07-14 11:50 pmWSW 5.8 7.8 2.0-4.6SSE29.90- 65.5- 63.1---
2024-07-14 11:40 pmWSW 5.8 5.8 2.0-4.6SSE29.89- 65.7 63.5 63.1---
2024-07-14 11:30 pmWSW 5.8 5.8----29.89- 66.0 63.3 63.0---
2024-07-14 11:20 pm SW 5.8 7.8 2.0 84.5SSE29.89- 66.7 63.5 63.0---
2024-07-14 11:10 pm--- 2.0-4.5SSE29.89-------
2024-07-14 11:00 pm SW 1.9 3.9----29.89+0.00------
2024-07-14 10:50 pm SW 3.9 3.9 2.0 84.7 SE29.90- 66.2 63.7 62.6---
2024-07-14 10:40 pm S 3.9 3.9 2.0-4.7 SE29.89- 65.8 63.7 62.6---
2024-07-14 10:30 pmSSW 3.9 3.9----29.89- 65.5 63.7 62.4---
2024-07-14 10:20 pm SW 3.9 3.9 2.0 85.0SSE29.90- 65.3 63.3 62.4---
2024-07-14 10:10 pm-------29.90-------
2024-07-14 10:00 pm W 3.9 3.9----29.90-------
2024-07-14 09:50 pmWSW 3.9 5.8 2.0 84.8SSE29.90- 65.7 63.3 62.6---
2024-07-14 09:40 pm SW 5.8 5.8 2.0-4.8SSE29.90- 65.8 63.3 62.6---
2024-07-14 09:30 pm SW 5.8 7.8----29.90- 65.7 63.5 63.0---
2024-07-14 09:20 pm SW 5.8 5.8 2.0 74.9SSE29.90- 65.5 63.3 62.8---
2024-07-14 09:10 pm-------29.91-------
2024-07-14 09:00 pm-------29.90+0.02------
2024-07-14 08:50 pmWSW 7.8 7.8 2.3-5.2SSE29.90-------
2024-07-14 08:40 pmWSW 5.8 7.8----29.90- 65.5 63.3 63.1---
2024-07-14 08:30 pmWSW 5.8 7.8----29.90- 65.7 63.5 63.1---
2024-07-14 08:20 pm--- 2.3-5.2SSE29.89-------
2024-07-14 08:10 pm-------29.89-------
2024-07-14 08:00 pm SW 5.8 5.8----29.89-------
2024-07-14 07:50 pmSSW 3.9 5.8 2.0 74.8SSE29.89- 65.7 64.2 63.3---
2024-07-14 07:40 pm-------29.89-------
2024-07-14 07:30 pm-------29.89-------
2024-07-14 07:20 pm--- 2.0-4.5SSE29.89-------
2024-07-14 07:10 pm-------29.89-------
2024-07-14 07:00 pm-------29.89-0.01------
2024-07-14 06:50 pm--- 2.0-5.0SSE29.89-------
2024-07-14 06:40 pm-------29.89-------
2024-07-14 06:30 pm-------29.88-------
2024-07-14 06:20 pm--- 2.0-5.0SSE29.89-------
2024-07-14 06:10 pm-------29.89-------
2024-07-14 06:00 pm SW 9.7 9.7----29.88-------
2024-07-14 05:50 pmSSW 9.7 9.7 2.0 75.6SSE29.88- 67.6 61.9 63.7---
2024-07-14 05:40 pmSSW 9.7 9.7----29.88- 67.8 63.3 63.5---
2024-07-14 05:30 pmSSW 9.7 11.7----29.89- 68.5 63.1 63.5---
2024-07-14 05:20 pmSSW 9.7 13.6 2.0 75.6SSE29.88- 69.3 63.1 63.3---
2024-07-14 05:10 pm S 9.7 11.7----29.88- 69.3 62.6 63.3---
2024-07-14 05:00 pm-------29.89-0.05------
2024-07-14 04:50 pm--- 2.0-5.5SSE29.89-------
2024-07-14 04:40 pm-------29.90-------
2024-07-14 04:30 pm-------29.90-------
2024-07-14 04:20 pm--- 2.0-5.5 SE29.90-------
2024-07-14 04:10 pm-------29.91-------
2024-07-14 04:00 pm-------29.91-------
2024-07-14 03:50 pm S 9.7 9.7 2.0-5.8 SE29.91-------
2024-07-14 03:40 pm S 7.8 9.7 2.0-5.8 SE29.91- 68.4 61.7 63.7---
2024-07-14 03:30 pm S 7.8 9.7----29.92- 68.2 61.3 63.5---
2024-07-14 03:20 pm S 7.8 9.7 2.0 75.7SSE29.92- 68.4 62.4 63.7---
2024-07-14 03:10 pm-------29.92-------
2024-07-14 03:00 pm S 7.8 9.7----29.93-0.05------
2024-07-14 02:50 pm S 7.8 9.7 2.0 85.6SSE29.93- 68.5 62.6 63.3---
2024-07-14 02:40 pm S 9.7 11.7----29.93- 68.5 61.9 63.3---
2024-07-14 02:30 pmSSW 9.7 11.7----29.93- 68.2 61.7 63.7---
2024-07-14 02:20 pm--- 2.0-5.7SSE29.94-------
2024-07-14 02:10 pm-------29.93-------
2024-07-14 02:00 pmSSW 7.8 9.7----29.94-0.04------
2024-07-14 01:50 pm S 9.7 11.7 2.0 85.3 SE29.94- 67.6 61.5 63.9---
2024-07-14 01:40 pmSSW 7.8 9.7 2.0-5.3 SE29.96- 67.3 61.5 64.2---
2024-07-14 01:30 pm-------29.95-------
2024-07-14 01:20 pm--- 1.6-5.4SSE29.95-------
2024-07-14 01:10 pm-------29.95-------
2024-07-14 01:00 pm S 7.8 9.7----29.96-0.04------
2024-07-14 12:50 pmSSW 9.7 9.7 1.6 85.2 SE29.96- 66.9 62.1 64.6---
2024-07-14 12:40 pmSSW 9.7 9.7 1.6-5.2 SE29.97- 66.6 62.4 64.6---
2024-07-14 12:30 pmSSW 9.7 9.7----29.97- 66.6 63.1 64.6---
2024-07-14 12:20 pmSSW 7.8 9.7 1.6 75.0SSE29.98- 66.9 62.4 64.9---
2024-07-14 12:10 pm-------29.97-------
2024-07-14 12:00 pmSSW 7.8 7.8----29.98-0.02------
2024-07-14 11:50 amSSW 7.8 9.7 1.6 95.1 SE29.98- 65.7 61.5 64.2---
2024-07-14 11:40 amSSW 7.8 7.8 1.6-5.1 SE29.98- 65.7 61.5 64.0---
2024-07-14 11:30 amSSW 5.8 7.8----29.98- 66.4 61.3 64.6---
2024-07-14 11:20 amSSW 5.8 7.8 2.0 84.9SSE29.98- 66.7 61.3 64.8---
2024-07-14 11:10 am-------29.98-------
2024-07-14 11:00 amSSW 5.8 5.8----29.98-0.02------
2024-07-14 10:50 am SW 5.8 5.8 1.6 54.9 SE29.99- 65.7 61.2 63.9---
2024-07-14 10:40 am SW 5.8 7.8----29.99- 65.5 61.7 64.0---
2024-07-14 10:30 am SW 5.8 7.8----29.99- 65.1 61.7 64.0---
2024-07-14 10:20 am SW 5.8 5.8 2.0 64.9 SE29.99- 64.4 61.2 63.5---
2024-07-14 10:10 am-------30.00-------
2024-07-14 10:00 am SW 5.8 7.8----30.00+0.00------
2024-07-14 09:50 am SW 7.8 7.8 2.0 84.9SSE30.00- 63.7 61.2 63.0---

Detailed Wave Summary
for 44007 as of (10:10 am EDT)
1410 GMT on 07/15/2024:

These wave data are displayed in rounded times.

     

Click on the graph icon in the table below to see a time series plot of the last five days of that observation.

5-day plot - Significant Wave Height Significant Wave Height (WVHT): 2.0 ft
5-day plot - Swell Height Swell Height (SwH): 1.6 ft
5-day plot - Swell Period Swell Period (SwP): 8.3 sec
5-day plot - Swell Direction Swell Direction (SwD):SSE
5-day plot - Wind Wave Height Wind Wave Height (WWH): 0.7 ft
5-day plot - Wind Wave Period Wind Wave Period (WWP): 3.8 sec
5-day plot - Wind Wave Direction Wind Wave Direction (WWD):SSE
5-day plot - Average Wave Period Average Wave Period (APD): 5.1 sec
Previous observations
TIME
(EDT)
5-day plot - Wave Height
WVHT
ft
5-day plot - Swell Height
SwH
ft
5-day plot - Swell Period
SwP
sec
5-day plot - Swell Direction
SwD
 
5-day plot - Wind Wave Height
WWH
ft
5-day plot - Wind Wave Period
WWP
sec
5-day plot - Wind Wave Direction
WWD
 
5-day plot - Wave Steepness
STEEPNESS
 
5-day plot - Average Wave Period
APD
sec
2024-07-15 09:40 am 2.0 2.0 8.3SSE 1.0 3.8 SSE N/A 5.1
2024-07-15 09:10 am 2.0 2.0 9.1SSE 0.7 3.3 SSE N/A 5.3
2024-07-15 08:40 am 2.0 2.0 6.7 SE 1.0 3.7 SSE N/A 5.1
2024-07-15 08:10 am 2.0 2.0 8.3SSE 0.7 3.6 SSE N/A 5.2
2024-07-15 07:40 am 2.0 2.0 9.1SSE 0.7 3.8 S N/A 5.5
2024-07-15 07:10 am 2.0 1.6 9.1SSE 1.0 3.6 SSE N/A 5.1
2024-07-15 06:40 am 2.0 2.0 8.3 SE 1.0 3.7 SSE N/A 5.2
2024-07-15 06:10 am 2.3 2.0 7.7SSE 1.0 3.8 S N/A 5.1
2024-07-15 05:40 am 2.3 2.0 9.1 SE 1.0 3.4 S N/A 5.1
2024-07-15 05:10 am 2.3 2.0 8.3SSE 1.0 3.3 S N/A 5.0
2024-07-15 04:40 am 2.3 2.0 7.1SSE 1.0 4.0 SSE N/A 5.1
2024-07-15 04:10 am 2.3 2.0 7.7 SE 1.0 3.3 SSE N/A 5.1
2024-07-15 03:40 am 2.0 2.0 7.1SSE 1.0 2.9 S N/A 4.7
2024-07-15 03:10 am 2.0 1.6 6.7SSE 1.0 3.2 SSE N/A 4.7
2024-07-15 02:40 am 2.3 2.0 7.7SSE 1.0 3.0 SSW N/A 4.6
2024-07-15 02:10 am 2.0 1.6 7.7SSE 1.3 3.1 SSW N/A 4.4
2024-07-15 01:40 am 2.0 1.6 7.7 SE 1.3 3.2 S N/A 4.2
2024-07-15 01:10 am 2.3 1.6 7.1SSE 1.3 3.4 S N/A 4.2
2024-07-15 12:40 am 2.3 2.0 7.1SSE 1.3 3.3 S N/A 4.4
2024-07-15 12:10 am 2.0 1.6 7.7SSE 1.0 3.2 SSE N/A 4.5
2024-07-14 11:40 pm 2.0 1.6 7.1SSE 1.0 3.1 S N/A 4.6
2024-07-14 11:10 pm 2.0 1.6 8.3SSE 1.0 3.2 SSE N/A 4.5
2024-07-14 10:40 pm 2.0 1.6 8.3 SE 1.0 3.0 S N/A 4.7
2024-07-14 10:10 pm 2.0 2.0 8.3SSE 0.7 2.7 S N/A 5.0
2024-07-14 09:40 pm 2.0 1.6 8.3SSE 1.0 2.5 SSW N/A 4.8
2024-07-14 09:10 pm 2.0 2.0 7.1SSE 1.0 2.7 S N/A 4.9
2024-07-14 08:40 pm 2.3 2.0 6.7SSE 0.7 2.9 S N/A 5.2
2024-07-14 08:10 pm 2.3 2.0 6.2SSE 0.7 2.5 S N/A 5.2
2024-07-14 07:40 pm 2.0 2.0 7.1SSE 1.0 2.4 S N/A 4.8
2024-07-14 07:10 pm 2.0 1.6 6.7SSE 1.0 2.5 S N/A 4.5
2024-07-14 06:40 pm 2.0 1.6 7.1SSE 0.7 4.2 SSE N/A 5.0
2024-07-14 06:10 pm 2.0 2.0 7.1SSE 0.7 4.2 SSE N/A 5.0
2024-07-14 05:40 pm 2.0 2.0 7.1SSE 0.7 4.3 SSE N/A 5.6
2024-07-14 05:10 pm 2.0 1.6 7.1SSE 0.7 5.0 SSE N/A 5.6
2024-07-14 04:40 pm 2.0 1.6 8.3SSE 0.7 4.2 SE N/A 5.5
2024-07-14 04:10 pm 2.0 1.6 7.7 SE 0.7 4.2 SSE N/A 5.5
2024-07-14 03:40 pm 2.0 1.6 7.7 SE 0.7 4.2 SSE N/A 5.8
2024-07-14 03:10 pm 2.0 1.6 7.1SSE 0.7 3.8 S N/A 5.7
2024-07-14 02:40 pm 2.0 2.0 7.7SSE 1.0 4.5 SSE N/A 5.6
2024-07-14 02:10 pm 2.0 1.6 7.1SSE 0.7 4.0 SSE N/A 5.7
2024-07-14 01:40 pm 2.0 1.6 7.7 SE 0.7 3.6 SSE N/A 5.3
2024-07-14 01:10 pm 1.6 1.6 8.3SSE 0.7 4.0 SSE N/A 5.4
2024-07-14 12:40 pm 1.6 1.6 8.3 SE 0.7 3.8 SSE N/A 5.2
2024-07-14 12:10 pm 1.6 1.6 6.7SSE 1.0 4.2 SSE N/A 5.0
2024-07-14 11:40 am 1.6 1.6 9.1 SE 0.7 3.7 SSE N/A 5.1
2024-07-14 11:10 am 2.0 1.6 7.7SSE 1.0 3.8 SSE N/A 4.9
2024-07-14 10:40 am 1.6 1.6 5.0 SE 0.7 3.8 SSE N/A 4.9
2024-07-14 10:10 am 2.0 1.6 6.2 SE 0.7 3.8 SSE N/A 4.9

Plot of wave energy versus frequency (and period)